Location: ????????
(55.0559°N, 39.1270°E)
Time: 08:59:00
(UTC+00:00)

Cosmos 1943 - Pass Details

Date: 15 November 2025
Orbit: 832 x 848 km, 71.0° (Epoch: 14 December)

Event Time Altitude Azimuth Distance (km) Brightness Sun altitude
Rises 03:43:34 0° 203° (SSW) 3,368 6.3 -10.2°
Reaches altitude 10° 03:45:59 10° 202° (SSW) 2,437 5.6 -9.9°
Maximum altitude 03:51:33 72° 119° (ESE) 879 3.5 -9.1°
Drops below altitude 10° 03:57:09 10° 36° (NE) 2,454 5.8 -8.3°
Sets 03:59:36 0° 35° (NE) 3,394 6.5 -8.0°
